Station 46050 (LLNR 641) - STONEWALL BANK - 20NM West of Newport, OR Image indicating link to RSS feed of recent meteorological observations for station 46050


Conditions at 46050 as of
(7:30 pm PDT on 04/18/2024)
0230 GMT on 04/19/2024:
     

Click on the graph icon in the table below to see a time series plot of the last five days of that observation.

5-day plot - Wind Direction Wind Direction (WDIR): N ( 360 deg true )
5-day plot - Wind Speed Wind Speed (WSPD): 19.4 kts
5-day plot - Wind Gust Wind Gust (GST): 23.3 kts
5-day plot - Atmospheric Pressure Atmospheric Pressure (PRES):30.05 in
5-day plot - Air Temperature Air Temperature (ATMP): 54.0 °F
5-day plot - Water Temperature Water Temperature (WTMP): 52.3 °F
5-day plot - Wind Speed at 10 Meters Wind Speed at 10 meters (WSPD10M): 21.4 kts
5-day plot - Wind Speed at 20 Meters Wind Speed at 20 meters (WSPD20M): 23.3 kts
5-day plot -  Wind Speed, Wind Gust and Atmospheric Pressure Combined plot of Wind Speed, Gust, and Air Pressure
Supplemental Measurements
Highest 1-minute Wind Speed
Time (PDT)5-day plot - 1-Minute Wind Speed WSPD 5-day plot - 1-Minute Wind Direction WDIR
7:23 pm 21.4 kts-
Previous observations
TIME
(PDT)
5-day plot - Wind Direction
WDIR
 
5-day plot - Wind Speed
WSPD
kts
5-day plot - Wind Gust
GST
kts
5-day plot - Wave Height
WVHT
ft
5-day plot - Dominant Wave Period
DPD
sec
5-day plot - Average Wave Period
APD
sec
5-day plot - Mean Wave Direction
MWD
 
5-day plot - Atmospheric Pressure
PRES
in
5-day plot - Pressure Tendency
PTDY
in
5-day plot - Air Temperature
ATMP
°F
5-day plot - Water Temperature
WTMP
°F
5-day plot - Dew Point
DEWP
°F
5-day plot - Salinity
SAL
psu
5-day plot - Visibility
VIS
nmi
5-day plot - Tide (above MLLW)
TIDE
ft
2024-04-18 07:20 pm N 19.4 25.3 5.2 64.6NNW30.05- 54.0 52.3----
2024-04-18 07:10 pm N 19.4 25.3 5.2-4.6NNW30.05- 54.1 52.3----
2024-04-18 07:00 pm N 19.4 25.3----30.05-0.03 54.3 52.3----
2024-04-18 06:50 pm N 19.4 23.3 4.9 54.5 N30.06- 54.3 52.3----
2024-04-18 06:40 pm N 19.4 25.3----30.06- 54.5 52.3----
2024-04-18 06:30 pm N 19.4 27.2----30.06- 54.5 52.3----
2024-04-18 06:20 pm N 19.4 25.3 4.6 64.4NNW30.06- 54.7 52.3----
2024-04-18 06:10 pm N 19.4 23.3----30.06- 54.7 52.3----
2024-04-18 06:00 pm N 19.4 25.3----30.06-0.04 54.7 52.3----
2024-04-18 05:50 pm N 19.4 23.3 4.6 54.6 N30.06- 54.7 52.3----
2024-04-18 05:40 pm N 17.5 23.3----30.06- 54.5 52.3----
2024-04-18 05:30 pm N 19.4 23.3----30.06- 54.3 52.3----
2024-04-18 05:20 pm N 19.4 23.3 4.6 164.6SSE30.06- 54.3 52.3----
2024-04-18 05:10 pm N 17.5 21.4 4.6-4.6SSE30.07- 54.1 52.3----
2024-04-18 05:00 pm N 17.5 21.4----30.07-0.03 54.1 52.3----
2024-04-18 04:50 pm N 17.5 21.4 4.3 164.4NNW30.07- 54.1 52.5----
2024-04-18 04:40 pm N 17.5 21.4----30.08- 54.1 52.3----
2024-04-18 04:30 pm N 17.5 21.4----30.07- 54.1 52.3----
2024-04-18 04:20 pm N 17.5 21.4 4.3 174.6 SE30.07- 54.0 52.3----
2024-04-18 04:10 pm N 17.5 21.4----30.08- 54.0 52.3----
2024-04-18 04:00 pm N 17.5 23.3----30.08-0.03 54.0 52.3----
2024-04-18 03:50 pm N 17.5 21.4 3.9 54.3NNW30.08- 54.0 52.5----
2024-04-18 03:40 pm N 17.5 21.4----30.09- 54.0 52.5----
2024-04-18 03:30 pmNNW 17.5 21.4----30.09- 54.0 52.3----
2024-04-18 03:20 pmNNW 17.5 19.4 3.9 54.3NNW30.09- 54.0 52.3----
2024-04-18 03:10 pm N 17.5 21.4 3.9-4.3NNW30.09- 54.0 52.3----
2024-04-18 03:00 pm N 17.5 21.4----30.09-0.03 54.0 52.3----
2024-04-18 02:50 pm N 17.5 19.4 3.9 64.2NNW30.09- 54.0 52.3----
2024-04-18 02:40 pm N 15.5 19.4 3.9-4.2NNW30.10- 54.0 52.3----
2024-04-18 02:30 pm N 15.5 19.4----30.10- 53.8 52.3----
2024-04-18 02:20 pm N 15.5 19.4 4.3 174.7 NW30.10- 53.8 52.3----
2024-04-18 02:10 pm N 15.5 19.4 4.3-4.7 NW30.10- 53.8 52.3----
2024-04-18 02:00 pm N 15.5 19.4----30.10-0.04 53.8 52.3----
2024-04-18 01:50 pm N 15.5 17.5 4.3 174.6 NW30.11- 53.6 52.3----
2024-04-18 01:40 pm N 15.5 17.5----30.11- 53.4 52.3----
2024-04-18 01:30 pm N 15.5 17.5----30.11- 53.2 52.2----
2024-04-18 01:20 pm N 15.5 19.4 4.3 174.7 W30.11- 53.2 52.2----
2024-04-18 01:10 pm N 15.5 17.5 4.3-4.7 W30.11- 53.2 52.2----
2024-04-18 01:00 pm N 15.5 17.5----30.11-0.04 53.2 52.2----
2024-04-18 12:50 pm N 15.5 17.5 4.6 174.7WSW30.11- 53.2 52.2----
2024-04-18 12:40 pm N 15.5 19.4----30.11- 53.1 52.2----
2024-04-18 12:30 pm N 15.5 17.5----30.12- 53.1 52.2----
2024-04-18 12:20 pm N 15.5 17.5 4.6 174.8 SW30.12- 53.1 52.0----
2024-04-18 12:10 pm N 15.5 17.5 4.6-4.8 SW30.12- 53.1 52.0----
2024-04-18 12:00 pm N 15.5 17.5----30.12-0.03 52.9 52.0----
2024-04-18 11:50 am N 15.5 17.5 4.6 164.7WNW30.13- 52.7 52.0----
2024-04-18 11:40 am N 15.5 17.5----30.14- 52.5 52.0----
2024-04-18 11:30 am N 15.5 17.5----30.13- 52.5 52.0----
2024-04-18 11:20 am N 13.6 17.5 4.9 64.8 NW30.14- 52.5 52.0----
2024-04-18 11:10 am N 13.6 15.5 4.9-4.8 NW30.14- 52.5 52.0----
2024-04-18 11:00 am N 13.6 17.5----30.14-0.01 52.5 52.0----
2024-04-18 10:50 am N 13.6 15.5 4.9 64.8NNW30.14- 52.5 52.0----
2024-04-18 10:40 am N 13.6 17.5----30.14- 52.3 52.0----
2024-04-18 10:30 am N 13.6 17.5----30.14- 52.3 52.0----
2024-04-18 10:20 am N 13.6 15.5 5.2 175.1SSE30.14- 52.3 51.8----
2024-04-18 10:10 am N 11.7 15.5 5.2-5.1SSE30.15- 52.5 51.8----
2024-04-18 10:00 am N 11.7 13.6----30.15+0.00 52.5 51.8----
2024-04-18 09:50 am N 11.7 15.5 4.9 64.9NNW30.15- 52.7 51.8----
2024-04-18 09:40 am N 13.6 15.5----30.15- 52.7 51.8----
2024-04-18 09:30 am N 13.6 15.5----30.15- 52.7 51.8----
2024-04-18 09:20 amNNE 13.6 15.5 5.2 65.0NNW30.15- 52.7 51.8----
2024-04-18 09:10 amNNE 13.6 15.5 5.2-5.0NNW30.15- 52.5 51.8----
2024-04-18 09:00 amNNE 13.6 15.5----30.15-0.02 52.5 51.8----
2024-04-18 08:50 amNNE 13.6 17.5 5.2 64.9NNW30.15- 52.7 51.8----
2024-04-18 08:40 amNNE 13.6 17.5----30.15- 52.5 51.8----
2024-04-18 08:30 amNNE 13.6 17.5----30.15- 52.5 51.8----
2024-04-18 08:20 amNNE 15.5 17.5 5.6 65.0NNW30.16- 52.5 51.8----
2024-04-18 08:10 amNNE 15.5 17.5----30.16- 52.5 51.8----
2024-04-18 08:00 amNNE 15.5 19.4----30.16-0.02 52.5 51.8----
2024-04-18 07:50 amNNE 17.5 19.4 5.9 65.1NNW30.15- 52.3 51.8----
2024-04-18 07:40 amNNE 17.5 19.4----30.15- 52.3 51.8----
2024-04-18 07:30 amNNE 15.5 19.4----30.16- 52.3 51.8----
2024-04-18 07:20 amNNE 15.5 19.4 5.6 75.0NNW30.15- 52.3 51.8----
2024-04-18 07:10 amNNE 15.5 19.4 5.6-5.0NNW30.15- 52.3 51.8----
2024-04-18 07:00 amNNE 15.5 21.4----30.16-0.02 52.3 51.8----
2024-04-18 06:50 amNNE 15.5 19.4 5.9 75.1NNW30.16- 52.2 51.8----
2024-04-18 06:40 amNNE 15.5 19.4----30.16- 52.2 51.8----
2024-04-18 06:30 amNNE 15.5 19.4----30.16- 52.2 51.8----
2024-04-18 06:20 amNNE 15.5 19.4 5.9 75.2NNW30.16- 52.2 51.8----
2024-04-18 06:10 amNNE 15.5 19.4 5.9-5.2NNW30.17- 52.3 51.8----
2024-04-18 06:00 am N 15.5 19.4----30.17-0.02 52.5 51.8----
2024-04-18 05:50 am N 17.5 19.4 5.9 75.3NNW30.16- 52.5 51.8----
2024-04-18 05:40 am N 17.5 21.4----30.17- 52.5 51.8----
2024-04-18 05:30 am N 15.5 19.4----30.17- 52.7 51.8----
2024-04-18 05:20 am N 15.5 19.4 5.9 75.3 NW30.17- 52.7 51.8----
2024-04-18 05:10 am N 15.5 19.4 5.9-5.3 NW30.17- 52.7 51.8----
2024-04-18 05:00 am N 15.5 19.4----30.17-0.03 52.7 51.8----
2024-04-18 04:50 amNNE 15.5 19.4 5.6 75.1NNW30.17- 52.5 51.8----
2024-04-18 04:40 amNNE 13.6 19.4----30.18- 52.3 51.8----
2024-04-18 04:30 amNNE 13.6 19.4----30.17- 52.3 51.8----
2024-04-18 04:20 amNNE 15.5 19.4 5.9 75.1NNW30.17- 52.3 51.8----
2024-04-18 04:10 amNNE 15.5 19.4 5.9-5.1NNW30.18- 52.3 51.8----
2024-04-18 04:00 amNNE 15.5 21.4----30.18-0.04 52.3 51.8----
2024-04-18 03:50 amNNE 17.5 21.4 6.2 65.4 N30.18- 52.3 51.8----
2024-04-18 03:40 amNNE 15.5 19.4----30.18- 52.3 51.8----
2024-04-18 03:30 amNNE 15.5 19.4----30.18- 52.3 51.8----
2024-04-18 03:20 amNNE 15.5 19.4 5.9 65.3 N30.19- 52.3 51.8----
2024-04-18 03:10 am N 15.5 19.4----30.19- 52.3 51.8----
2024-04-18 03:00 am N 17.5 21.4----30.19-0.05 52.3 51.8----
2024-04-18 02:50 amNNE 15.5 19.4 6.6 75.4NNW30.19- 52.3 51.8----
2024-04-18 02:40 amNNE 15.5 19.4----30.19- 52.3 51.8----
2024-04-18 02:30 amNNE 15.5 19.4----30.20- 52.3 51.8----
2024-04-18 02:20 amNNE 17.5 21.4 6.6 75.4NNW30.20- 52.3 51.8----
2024-04-18 02:10 amNNE 17.5 21.4----30.20- 52.3 51.8----
2024-04-18 02:00 amNNE 15.5 21.4----30.21-0.04 52.3 51.8----
2024-04-18 01:50 amNNE 17.5 21.4 7.2 75.4 N30.21- 52.3 51.8----
2024-04-18 01:40 amNNE 17.5 21.4----30.21- 52.5 51.8----
2024-04-18 01:30 amNNE 19.4 25.3----30.22- 52.3 51.8----
2024-04-18 01:20 amNNE 19.4 23.3 6.9 75.4 N30.22- 52.3 51.8----
2024-04-18 01:10 amNNE 19.4 23.3----30.22- 52.3 51.8----
2024-04-18 01:00 amNNE 19.4 25.3----30.22-0.04 52.3 52.0----
2024-04-18 12:50 amNNE 19.4 25.3 7.5 75.4 N30.22- 52.3 52.0----
2024-04-18 12:40 amNNE 19.4 25.3----30.23- 52.3 52.0----
2024-04-18 12:30 amNNE 19.4 25.3----30.23- 52.2 52.0----
2024-04-18 12:20 amNNE 19.4 23.3 6.9 75.2 N30.24- 52.2 52.0----
2024-04-18 12:10 amNNE 19.4 25.3----30.24- 52.2 52.0----
2024-04-18 12:00 amNNE 19.4 25.3----30.24-0.03 52.2 52.0----
2024-04-17 11:50 pmNNE 19.4 25.3 7.2 65.2 N30.24- 52.2 52.0----
2024-04-17 11:40 pmNNE 21.4 25.3----30.24- 52.3 52.0----
2024-04-17 11:30 pmNNE 19.4 25.3----30.24- 52.3 52.0----
2024-04-17 11:20 pmNNE 21.4 27.2 6.9 65.1 N30.24- 52.3 52.0----
2024-04-17 11:10 pmNNE 19.4 25.3 6.9-5.1 N30.24- 52.3 52.0----
2024-04-17 11:00 pmNNE 21.4 27.2----30.25-0.01 52.3 52.0----
2024-04-17 10:50 pmNNE 19.4 25.3 7.9 75.3 N30.25- 52.3 52.0----
2024-04-17 10:40 pmNNE 19.4 25.3----30.25- 52.3 52.0----
2024-04-17 10:30 pmNNE 21.4 27.2----30.26- 52.3 52.0----
2024-04-17 10:20 pmNNE 21.4 27.2 7.9 65.2 N30.26- 52.3 52.0----
2024-04-17 10:10 pmNNE 21.4 27.2----30.26- 52.3 52.0----
2024-04-17 10:00 pmNNE 21.4 29.1----30.26-0.01 52.2 52.0----
2024-04-17 09:50 pmNNE 21.4 27.2 7.5 65.2 N30.26- 52.2 52.0----
2024-04-17 09:40 pmNNE 21.4 29.1----30.27- 52.2 52.0----
2024-04-17 09:30 pmNNE 23.3 29.1----30.27- 52.2 52.0----
2024-04-17 09:20 pmNNE 23.3 29.1 8.2 65.3 N30.27- 52.2 52.0----
2024-04-17 09:10 pmNNE 23.3 29.1----30.27- 52.0 52.0----
2024-04-17 09:00 pm N 23.3 33.0----30.27-0.02 52.2 52.0----
2024-04-17 08:50 pm N 21.4 29.1 7.2 65.1NNE30.27- 52.2 52.0----
2024-04-17 08:40 pm N 21.4 31.1----30.27- 52.0 52.0----
2024-04-17 08:30 pm N 21.4 29.1----30.27- 52.0 52.2----
2024-04-17 08:20 pm N 21.4 27.2 7.5 65.0 N30.27- 51.8 52.2----
2024-04-17 08:10 pm N 21.4 27.2----30.27- 51.8 52.2----
2024-04-17 08:00 pm N 21.4 27.2----30.27-0.05 51.8 52.2----
2024-04-17 07:50 pm N 21.4 29.1 7.5 65.1 N30.27- 51.8 52.3----

Detailed Wave Summary
for 46050 as of
(7:10 pm PDT on 04/18/2024)
0210 GMT on 04/19/2024:

These wave data are displayed in rounded times.

     

Click on the graph icon in the table below to see a time series plot of the last five days of that observation.

5-day plot - Significant Wave Height Significant Wave Height (WVHT): 5.2 ft
5-day plot - Swell Height Swell Height (SwH): 2.3 ft
5-day plot - Swell Period Swell Period (SwP): 16.0 sec
5-day plot - Swell Direction Swell Direction (SwD): SW
5-day plot - Wind Wave Height Wind Wave Height (WWH): 4.6 ft
5-day plot - Wind Wave Period Wind Wave Period (WWP): 5.9 sec
5-day plot - Wind Wave Direction Wind Wave Direction (WWD):NNW
5-day plot - Wave Steepness Wave Steepness (STEEPNESS):VERY_STEEP
5-day plot - Average Wave Period Average Wave Period (APD): 4.6 sec
Previous observations
TIME
(PDT)
5-day plot - Wave Height
WVHT
ft
5-day plot - Swell Height
SwH
ft
5-day plot - Swell Period
SwP
sec
5-day plot - Swell Direction
SwD
 
5-day plot - Wind Wave Height
WWH
ft
5-day plot - Wind Wave Period
WWP
sec
5-day plot - Wind Wave Direction
WWD
 
5-day plot - Wave Steepness
STEEPNESS
 
5-day plot - Average Wave Period
APD
sec
2024-04-18 06:40 pm 4.9 2.0 16.0WNW 4.6 5.3 NVERY_STEEP 4.5
2024-04-18 06:10 pm 4.6 2.3 16.0SSW 4.3 5.6 NNWVERY_STEEP 4.4
2024-04-18 05:40 pm 4.6 2.3 17.4SSE 3.9 4.8 NVERY_STEEP 4.6
2024-04-18 05:10 pm 4.6 2.6 16.0SSE 3.6 5.0 N AVERAGE 4.6
2024-04-18 04:40 pm 4.3 2.6 16.0NNW 3.6 5.6 NNW AVERAGE 4.4
2024-04-18 04:10 pm 4.3 2.6 17.4 SE 3.6 5.9 NNW AVERAGE 4.6
2024-04-18 03:40 pm 3.9 2.0 6.7 NW 3.3 5.3 NNWVERY_STEEP 4.3
2024-04-18 03:10 pm 3.9 2.0 6.7 NW 3.3 5.3 NNWVERY_STEEP 4.3
2024-04-18 02:40 pm 3.9 2.0 17.4SSW 3.3 5.6 NNWVERY_STEEP 4.2
2024-04-18 02:10 pm 4.3 2.6 17.4 NW 3.3 5.6 NNW AVERAGE 4.7
2024-04-18 01:40 pm 4.3 2.3 17.4 NW 3.3 5.9 NW AVERAGE 4.6
2024-04-18 01:10 pm 4.3 2.6 17.4 W 3.6 5.0 NNW AVERAGE 4.7
2024-04-18 12:40 pm 4.6 2.6 17.4WSW 3.6 5.3 NNW AVERAGE 4.7
2024-04-18 12:10 pm 4.6 2.6 17.4 SW 3.6 5.9 NNW AVERAGE 4.8
2024-04-18 11:40 am 4.6 2.3 16.0WNW 3.9 6.2 NNW AVERAGE 4.7
2024-04-18 11:10 am 4.9 2.6 17.4SSW 3.9 5.9 NWVERY_STEEP 4.8
2024-04-18 10:40 am 4.9 2.6 17.4SSW 3.9 5.9 NNWVERY_STEEP 4.8
2024-04-18 10:10 am 5.2 3.6 17.4SSE 3.9 5.3 NNW AVERAGE 5.1
2024-04-18 09:40 am 4.9 2.6 17.4 NW 4.3 6.2 NNW STEEP 4.9
2024-04-18 09:10 am 5.2 3.6 6.2NNW 3.9 4.5 N STEEP 5.0
2024-04-18 08:40 am 5.2 3.0 17.4 SW 4.3 6.2 NNW STEEP 4.9
2024-04-18 08:10 am 5.6 2.6 17.4SSW 4.9 6.2 NNWVERY_STEEP 5.0
2024-04-18 07:40 am 5.9 3.0 17.4WNW 5.2 6.2 NNWVERY_STEEP 5.1
2024-04-18 07:10 am 5.6 2.6 9.1NNW 4.9 6.7 NNW STEEP 5.0
2024-04-18 06:40 am 5.9 3.0 17.4 S 5.2 6.7 NNW STEEP 5.1
2024-04-18 06:10 am 5.9 2.6 17.4 SW 5.2 6.7 NNW STEEP 5.2
2024-04-18 05:40 am 5.9 3.6 17.4 SW 4.6 6.7 NNW STEEP 5.3
2024-04-18 05:10 am 5.9 3.0 17.4 S 4.9 7.1 NW STEEP 5.3
2024-04-18 04:40 am 5.6 2.6 17.4SSE 4.9 6.7 NNW STEEP 5.1
2024-04-18 04:10 am 5.9 3.3 17.4 SW 4.6 6.7 NNW STEEP 5.1
2024-04-18 03:40 am 6.2 2.6 17.4 S 5.6 6.2 NVERY_STEEP 5.4
2024-04-18 03:10 am 5.9 2.6 9.1 NW 5.2 6.2 NVERY_STEEP 5.3
2024-04-18 02:40 am 6.6 3.3 9.1 NW 5.6 7.1 NNW STEEP 5.4
2024-04-18 02:10 am 6.6 3.6 17.4SSW 5.6 7.1 NNW STEEP 5.4
2024-04-18 01:40 am 7.2 2.3 10.0 NW 6.9 7.1 N STEEP 5.4
2024-04-18 01:10 am 6.9 3.0 17.4SSE 6.2 6.7 N STEEP 5.4
2024-04-18 12:40 am 7.5 4.6 7.1 N 5.9 4.2 N STEEP 5.4
2024-04-18 12:10 am 6.9 3.3 10.0 NW 5.9 6.7 N STEEP 5.2
2024-04-17 11:40 pm 7.2 2.6 19.0ESE 6.6 6.2 NVERY_STEEP 5.2
2024-04-17 11:10 pm 6.9 2.0 17.4SSW 6.9 6.2 NVERY_STEEP 5.1
2024-04-17 10:40 pm 7.9 2.0 10.0 NW 7.5 6.7 NVERY_STEEP 5.3
2024-04-17 10:10 pm 7.9 2.3 9.1NNW 7.5 5.6 NVERY_STEEP 5.2
2024-04-17 09:40 pm 7.5 2.6 10.0NNW 7.2 6.2 NVERY_STEEP 5.2
2024-04-17 09:10 pm 8.2 2.3 9.1NNW 7.9 6.2 NVERY_STEEP 5.3
2024-04-17 08:40 pm 7.2 2.6 9.1NNW 6.6 5.9 NNEVERY_STEEP 5.1
2024-04-17 08:10 pm 7.5 2.3 10.0NNW 6.9 6.2 NVERY_STEEP 5.0

Plot of wave energy versus frequency (and period)